Lid_Strength_Index
3 3 3 3 3 3 3 3 3 3 3 3 3 4 4 4 5 7 10 7 5 2 1 6 7 9 10 12 11 12 16 18 16 14 14 10 10 7 5 8 9 5 7 7 3
3 3 3 3 3 3 3 3 3 3 3 3 3 3 4 4 7 9 5 3 1 1 6 8 12 10 12 13 13 14 18 16 13 12 13 12 11 9 8 9 10 6 5 4 6
3 4 3 3 3 3 3 3 3 2 3 3 3 4 4 5 10 10 3 2 1 -0 6 7 9 11 13 14 14 14 16 13 12 11 11 11 11 8 9 11 10 8 6 5 7
3 3 2 2 2 3 3 3 3 3 2 3 4 4 4 6 15 8 -2 0 0 1 7 10 12 13 13 13 13 16 12 12 11 11 11 12 10 9 8 8 8 7 5 6 6
3 2 2 2 2 2 2 2 2 3 3 4 4 4 7 10 10 6 -1 -0 2 4 9 11 12 12 13 13 12 14 12 11 10 10 11 10 10 9 9 7 6 5 4 6 5
2 2 2 2 2 2 2 2 2 3 3 4 3 4 8 11 6 5 1 2 4 8 9 10 11 10 11 12 12 10 10 9 9 10 9 9 9 9 8 6 6 5 5 4 4
2 2 2 2 2 2 2 2 2 3 3 3 4 5 8 10 4 4 3 5 6 7 9 9 9 9 10 11 9 9 11 10 9 9 10 8 11 10 7 7 8 7 8 5 6
2 2 2 2 2 2 2 3 3 3 3 3 3 6 10 5 5 6 6 6 6 6 7 7 8 10 10 9 9 11 11 14 10 10 9 9 13 9 7 8 9 8 8 8 7
3 2 2 2 2 2 2 3 3 3 2 2 6 7 10 3 4 4 5 6 6 6 6 5 7 9 9 12 13 13 15 14 11 10 10 11 12 8 8 8 8 8 9 8 8
3 3 3 3 2 3 3 3 3 3 3 4 4 8 7 6 4 3 4 5 6 6 7 8 10 11 13 13 15 14 14 13 13 10 10 11 11 9 8 9 9 9 8 8 8
4 3 3 3 3 3 3 7 7 8 6 8 7 7 6 4 3 5 6 7 7 8 11 10 13 14 12 11 10 11 12 13 11 9 11 11 11 11 9 9 9 9 8 9 8
4 3 3 3 3 3 4 8 6 6 8 5 5 6 5 5 6 6 7 10 10 12 11 13 14 10 9 9 10 11 12 12 11 9 11 11 11 11 10 10 9 9 8 8 9
4 3 3 2 2 5 7 6 4 5 9 7 5 5 5 5 6 6 7 8 10 11 11 12 10 8 9 10 10 11 12 12 12 10 11 12 13 12 9 8 8 8 8 8 8
4 4 3 3 5 7 6 3 4 5 12 9 7 5 4 4 7 4 6 8 10 11 11 11 8 9 9 10 10 12 9 10 10 12 15 11 17 13 11 10 9 8 9 8 7
4 4 3 3 5 7 4 4 5 6 20 8 7 3 4 6 6 6 5 7 10 10 11 11 10 10 11 10 9 11 9 10 10 13 14 14 16 14 12 11 10 8 8 7 7
4 4 3 5 5 5 4 4 6 13 19 10 7 7 8 7 6 6 7 6 7 10 10 10 8 9 9 7 8 7 10 11 12 14 17 14 15 15 12 11 10 9 8 7 8
4 4 4 3 7 5 5 6 13 18 9 11 10 9 9 9 8 8 9 10 12 14 14 11 10 8 7 9 8 10 13 16 18 17 18 13 15 14 10 10 9 9 9 8 8
4 4 5 4 3 4 6 9 18 12 11 7 8 9 11 10 10 9 10 12 10 11 13 14 15 9 7 9 11 11 12 17 20 20 18 13 17 14 9 9 8 9 10 9 9
4 7 7 5 3 5 7 15 14 12 9 9 9 11 11 9 9 10 11 11 10 10 13 14 14 8 8 7 8 11 14 11 16 15 19 15 13 11 9 9 10 10 10 10 10
5 7 6 3 3 5 10 13 11 8 8 8 11 10 13 12 12 11 11 9 9 8 9 11 15 10 9 8 8 10 9 15 15 20 22 16 15 15 12 12 12 12 12 12 11
8 8 5 3 4 8 13 12 9 7 7 8 10 11 11 12 12 12 12 9 8 8 8 10 13 13 10 12 13 12 13 13 14 15 20 20 16 12 13 12 12 12 11 12 11
10 10 5 3 9 10 11 9 8 8 6 7 8 9 11 11 12 12 12 10 7 8 10 10 13 16 13 10 8 11 11 13 17 18 16 18 17 11 12 11 11 12 11 11 11
9 9 5 5 12 11 9 8 8 8 8 8 9 8 9 11 14 11 10 7 7 9 10 10 14 17 15 13 11 13 11 11 12 13 17 19 17 10 11 11 11 11 11 11 10
9 10 8 7 8 10 10 10 9 7 8 7 9 8 10 12 10 12 11 8 7 8 6 8 13 14 17 15 13 14 12 11 12 16 16 15 14 13 12 12 11 12 12 12 11
9 9 9 11 9 9 10 9 10 10 8 8 9 9 11 13 13 13 11 10 8 7 8 10 14 13 12 11 11 12 12 11 13 14 15 14 13 13 12 11 12 12 11 11 11
7 8 7 8 8 9 9 10 10 9 9 10 10 10 10 12 12 13 12 12 12 9 11 9 14 13 14 11 11 13 11 11 11 11 12 11 14 11 10 11 12 12 12 12 11
4 3 6 8 9 10 10 9 9 8 8 8 9 10 11 10 9 10 9 9 10 12 12 12 13 14 17 13 13 16 12 11 11 11 12 15 13 12 12 11 12 12 12 11 10